Probability
0 0 0 0 0 0 0 0 0 0 0 0 0 0 0 0 0 0 0 0 0 0 0 0 0 0 0 0 0 0 0 0 0 0 0 0 0 0 0 0 0 0 0 0
0 0 0 0 0 0 0 0 0 0 0 0 0 0 0 0 0 0 0 0 0 0 0 0 0 0 0 0 0 0 0 0 0 0 0 0 0 0 0 0 0 0 0 0
0 0 0 0 0 0 0 0 0 0 0 0 0 0 0 0 0 0 0 0 0 0 0 0 0 0 0 0 0 0 0 0 0 0 0 0 0 0 0 0 0 0 0 0
0 0 0 0 0 0 0 0 0 0 0 0 0 0 0 0 0 0 0 0 0 0 0 0 0 0 0 0 0 0 0 0 0 0 0 0 0 0 0 0 0 0 0 0
0 0 0 0 0 0 0 0 0 0 0 0 0 0 0 0 0 0 0 0 0 0 0 0 0 0 0 0 0 0 0 0 0 0 0 0 0 0 0 0 0 0 0 0
0 0 0 0 0 0 0 0 0 0 0 0 0 0 0 0 0 0 0 0 0 0 0 0 0 0 0 0 0 0 0 0 0 0 0 0 0 0 0 0 0 0 0 0
0 0 0 0 0 0 0 0 0 0 0 0 0 0 0 0 0 0 0 0 0 0 0 0 0 0 0 0 0 0 0 0 0 0 0 0 0 0 0 0 0 0 0 0
0 0 0 0 0 0 0 0 0 0 0 0 0 0 0 0 0 0 0 0 0 0 0 0 0 0 0 0 0 0 0 0 0 0 0 0 0 0 0 0 0 0 0 0
0 0 0 0 0 0 0 0 0 0 0 0 0 0 0 0 0 0 0 0 0 0 0 0 0 0 0 0 0 0 0 0 0 0 0 0 0 0 0 0 0 0 0 0
0 0 0 0 0 0 0 0 0 0 0 0 0 0 0 0 0 0 0 0 0 0 0 0 0 0 0 0 0 0 0 0 0 0 0 0 0 0 0 0 0 0 0 0
0 0 0 0 0 0 0 0 0 0 0 0 0 0 0 0 0 0 0 0 0 0 0 0 0 0 0 0 0 0 0 0 0 0 0 0 0 0 0 0 1 0 0 0
0 0 0 0 0 0 0 0 0 0 0 0 0 0 0 0 0 0 0 0 0 0 0 0 0 0 0 0 0 0 0 0 0 0 0 0 0 0 0 0 0 0 0 0
0 0 0 0 0 0 0 0 0 0 0 0 0 0 0 0 0 0 0 0 0 0 0 0 0 0 0 0 0 0 0 0 0 0 0 0 0 0 0 0 0 0 0 0
0 0 0 0 0 0 0 0 0 0 0 0 0 0 0 0 0 0 0 0 0 0 0 0 0 0 0 0 0 0 0 0 0 0 0 0 0 0 0 0 0 0 0 0
0 0 0 0 0 0 0 0 0 0 0 0 0 0 0 0 0 0 0 0 0 0 0 0 0 0 0 0 0 0 0 0 0 0 0 0 0 0 0 0 0 0 0 0
0 0 0 0 0 0 0 0 0 0 0 0 0 0 0 0 0 0 0 0 0 0 0 0 0 0 0 0 0 0 0 0 0 0 0 0 0 0 0 0 0 0 0 0
0 0 0 0 0 0 0 0 0 0 0 0 0 0 0 0 0 0 0 0 0 0 0 0 0 0 0 0 0 0 0 0 0 0 0 0 0 0 0 0 0 0 0 0
0 0 0 0 0 0 0 0 0 0 0 0 0 0 0 0 0 0 0 0 0 0 0 0 0 0 0 0 0 0 0 0 0 0 0 0 0 0 0 0 0 0 0 0
0 0 0 0 0 0 0 0 0 0 0 0 0 0 0 0 0 0 0 0 0 0 0 0 0 0 0 0 0 0 0 0 0 0 0 0 0 0 0 0 0 0 0 0
0 0 0 0 0 0 0 0 0 0 0 0 0 0 0 0 0 0 0 0 0 0 0 0 0 0 0 0 0 0 0 0 0 0 0 0 0 0 0 0 0 0 0 0
0 0 0 0 0 0 0 0 0 0 0 0 0 0 0 0 0 0 0 0 0 0 0 0 0 0 0 0 0 0 0 0 0 0 0 0 0 0 0 0 0 0 0 0
0 0 0 0 0 0 0 0 0 0 0 0 0 0 0 0 0 0 0 0 0 0 0 0 0 0 0 0 0 0 0 0 0 0 0 0 0 0 0 0 0 0 0 0
0 0 0 0 0 0 0 0 0 0 0 0 0 0 0 0 0 0 0 0 0 0 0 0 0 0 0 0 0 0 0 0 0 0 0 0 0 0 0 0 0 0 0 0
0 0 0 0 0 0 0 0 0 0 0 0 0 0 0 0 0 0 0 0 0 0 0 0 0 0 0 0 0 0 0 0 0 0 0 0 0 0 0 0 0 0 0 0
0 0 0 0 0 0 0 0 0 0 0 0 0 0 0 0 0 0 0 0 0 0 0 0 0 0 0 0 0 0 0 0 0 0 0 0 0 0 0 0 0 0 0 0
0 0 0 0 0 0 0 0 0 0 0 0 0 0 0 0 0 0 0 0 0 0 0 0 0 0 0 0 0 0 0 0 0 0 0 0 0 0 0 0 0 0 0 0
Wind_Speed
3 4 4 4 3 4 6 7 7 5 3 3 6 7 7 7 7 6 6 7 7 6 6 5 4 4 4 4 4 4 4 4 2 2 1 2 2 3 4 4 6 5 6 6
6 4 4 4 5 6 7 9 8 6 4 3 6 5 5 6 6 5 6 7 8 8 7 6 5 5 5 5 4 4 4 3 2 2 1 2 2 3 3 3 5 6 6 6
4 5 4 6 7 6 5 5 7 7 6 5 5 5 6 6 5 5 5 6 7 8 8 7 6 6 5 5 4 3 3 3 3 3 2 2 2 2 2 3 4 5 6 6
3 4 5 6 5 4 4 4 7 8 7 5 5 4 7 8 8 8 8 8 8 8 7 7 6 6 6 5 4 4 4 3 3 3 2 2 1 2 3 3 3 4 5 6
4 4 5 5 4 3 4 6 6 6 5 4 5 4 6 8 10 11 10 10 9 9 8 7 7 6 6 6 5 4 4 4 3 3 3 2 2 3 2 2 3 4 5 5
4 2 1 2 4 5 9 7 6 4 4 5 4 4 4 8 10 10 11 11 10 10 8 7 6 6 6 6 5 5 5 4 3 3 3 3 3 3 3 2 3 2 3 4
6 5 4 5 8 8 8 7 4 5 5 3 4 4 4 5 7 9 11 12 11 10 9 9 8 8 7 7 6 6 6 5 4 4 3 3 3 2 3 2 2 2 3 3
6 7 6 5 4 6 8 6 3 2 3 3 5 5 2 4 5 7 8 10 10 10 9 9 9 9 8 8 7 6 6 5 4 4 4 3 3 1 2 2 2 2 2 3
4 6 5 3 2 4 6 5 3 3 1 3 4 3 3 5 7 8 10 10 11 11 10 10 9 9 9 8 8 7 7 6 5 4 4 3 3 2 3 2 2 2 2 2
2 5 7 5 5 1 3 2 4 5 4 3 3 5 5 9 10 11 11 11 11 11 11 10 9 9 9 8 7 7 6 6 6 5 4 3 3 3 2 2 2 2 2 2
4 5 7 7 7 7 6 5 5 4 4 4 2 2 2 6 9 11 12 11 11 12 11 10 9 9 8 8 8 7 7 6 6 5 5 4 4 3 3 2 2 2 2 2
4 4 5 6 2 2 6 7 7 6 4 4 4 0 3 3 6 9 10 10 10 11 10 10 10 9 9 9 9 8 7 7 6 6 5 5 4 4 4 4 3 2 2 2
6 5 5 6 6 6 7 7 8 7 6 6 6 2 5 4 5 7 9 10 10 11 11 10 10 10 9 9 8 8 7 7 6 6 6 5 5 5 4 4 3 2 1 1
5 6 6 4 1 5 8 9 10 10 8 8 8 6 5 5 6 7 9 10 10 11 11 11 11 10 9 9 9 8 8 7 7 7 6 6 6 5 4 4 3 2 1 1
7 7 6 5 3 5 7 9 12 14 12 11 8 8 8 6 6 7 9 10 11 12 12 13 12 11 10 10 9 8 8 7 7 7 6 6 5 5 4 4 3 2 2 1
7 6 6 6 6 7 9 10 12 13 13 13 12 12 8 6 5 7 10 11 13 13 13 13 13 12 12 11 10 9 9 8 8 7 6 5 5 5 5 4 4 3 2 2
7 7 6 6 4 6 10 11 13 12 11 11 12 9 5 6 7 9 10 12 13 13 13 13 13 13 12 11 11 10 9 8 8 7 6 6 6 6 6 5 4 3 3 2
7 8 6 6 6 10 3 0 6 10 11 11 11 8 7 6 6 7 8 10 12 12 12 13 12 11 11 10 10 10 9 9 8 7 7 6 6 6 5 5 4 4 3 3
6 7 6 6 8 8 5 4 6 7 8 8 10 8 5 3 4 6 7 9 9 10 10 11 11 11 11 11 11 10 10 9 8 8 7 7 7 6 6 5 5 4 3 3
5 7 7 7 8 7 3 2 2 5 6 2 4 4 4 7 6 4 6 7 7 7 8 9 10 11 11 11 11 11 10 10 9 8 7 7 6 6 6 6 5 4 4 3
7 7 9 10 10 7 2 3 6 6 1 2 2 3 7 8 4 2 5 6 7 7 8 9 10 10 10 11 11 11 10 10 8 7 7 6 6 6 6 5 4 4 4 4
8 7 8 8 9 6 4 6 6 3 4 1 1 3 6 6 1 2 5 6 7 8 9 10 9 9 9 10 11 11 10 8 8 7 7 7 6 5 5 5 4 4 4 4
7 6 4 6 4 3 3 4 3 5 5 3 3 3 4 4 4 4 5 6 7 9 9 9 9 9 9 10 11 11 9 8 8 8 7 7 7 6 5 6 5 5 4 4
4 2 5 6 6 4 4 6 7 6 7 6 5 4 5 6 5 5 5 6 7 8 9 9 10 10 10 10 10 9 9 9 9 9 8 7 7 7 6 5 5 5 4 5
3 5 5 7 6 5 4 4 5 5 5 5 4 4 5 6 6 6 6 6 6 7 7 8 9 9 10 10 10 9 9 9 10 9 8 7 6 6 6 6 4 5 5 4
5 6 6 6 5 5 5 4 5 5 5 4 4 4 4 5 6 6 5 6 6 7 7 8 8 9 9 9 9 9 9 10 10 8 8 6 5 5 5 5 5 6 6 5
Wind_Direction
149 162 146 133 121 134 146 140 125 110 98 123 135 139 153 162 168 165 169 168 160 148 146 145 146 153 150 140 135 131 139 139 143 126 107 82 71 57 53 47 37 31 30 24
147 117 100 118 130 145 146 135 123 112 117 137 141 142 159 169 177 175 179 176 171 162 163 159 159 155 153 143 139 135 128 130 128 99 79 75 68 59 57 49 46 34 35 31
125 103 129 145 143 141 136 147 143 138 141 154 151 163 177 175 185 182 190 188 178 179 179 168 162 156 154 150 143 136 129 130 126 127 120 122 114 112 89 66 50 35 36 35
108 126 153 152 152 163 142 144 150 158 169 158 204 183 176 177 190 194 193 191 186 182 184 168 164 163 160 152 143 140 131 118 115 127 128 116 99 81 64 54 61 61 49 42
129 151 172 168 155 173 119 141 154 168 173 170 195 215 168 177 200 199 195 193 188 182 182 174 171 165 157 144 143 140 128 114 108 108 105 115 95 92 90 82 71 60 56 43
118 126 185 134 119 139 135 141 145 175 200 202 188 224 191 190 205 193 190 192 187 182 176 171 163 161 150 141 143 141 133 118 115 123 121 111 101 101 97 85 73 70 68 51
147 143 137 144 134 149 176 180 177 185 201 183 156 229 223 190 201 196 188 186 182 179 176 172 168 168 160 157 156 153 146 138 138 136 129 118 111 111 101 92 83 62 63 57
170 157 164 181 192 177 190 223 250 224 196 150 181 225 178 157 190 192 187 180 178 178 178 175 175 171 167 165 164 164 154 147 146 145 134 125 123 119 96 83 74 70 56 49
180 133 137 152 170 191 187 214 314 300 225 221 193 205 189 175 188 187 184 182 184 181 179 177 175 174 172 170 171 170 164 157 156 152 144 138 132 120 110 113 95 80 68 56
204 143 145 144 160 132 276 186 206 236 227 223 206 220 201 182 191 187 187 187 185 182 180 177 173 176 175 170 170 172 171 165 161 161 156 143 142 133 123 121 103 88 73 64
221 176 155 179 204 184 175 198 228 243 270 274 240 186 161 193 191 191 191 188 183 182 180 175 172 174 171 169 172 173 175 171 167 168 162 160 154 153 151 134 121 113 89 93
205 225 179 179 141 278 236 230 225 238 226 256 277 270 106 194 194 195 191 184 183 182 179 174 171 171 173 177 178 178 177 174 173 174 174 171 163 168 165 149 149 139 110 93
176 215 187 172 182 192 220 225 230 249 256 244 252 206 132 179 196 197 193 184 180 180 179 175 175 178 178 180 181 180 179 177 174 178 182 180 177 172 169 163 158 157 131 121
217 229 244 245 216 188 207 208 215 226 243 247 249 262 230 220 212 200 194 189 184 183 182 181 182 183 182 182 183 181 180 179 179 183 188 187 180 174 176 170 173 181 172 165
227 244 243 263 261 226 232 223 214 226 246 262 268 266 259 244 222 202 191 187 186 187 188 187 187 185 183 183 183 181 179 180 181 183 189 188 181 173 178 173 185 188 196 214
225 246 243 241 232 233 242 239 230 234 246 256 264 267 264 256 218 202 193 189 191 192 192 190 190 187 187 184 182 179 179 179 181 184 184 177 182 177 182 185 188 192 204 218
206 233 245 245 218 232 244 236 226 227 230 240 250 260 248 225 213 209 197 194 197 196 193 192 191 190 189 186 180 178 178 176 179 179 177 179 182 180 185 184 185 195 204 209
224 229 244 257 240 250 277 69 232 236 244 244 256 262 251 237 225 217 208 202 202 197 194 193 191 187 185 181 178 176 174 177 179 180 180 180 181 182 183 185 193 209 214 207
248 234 239 248 254 262 263 227 211 227 252 250 249 254 247 214 197 211 206 206 203 196 192 189 187 182 179 177 176 174 175 178 182 184 185 182 183 183 186 190 199 208 215 221
207 232 241 238 252 259 270 104 180 234 248 233 230 228 194 183 211 200 177 194 196 186 180 177 177 177 176 174 174 178 179 182 186 187 189 185 185 185 191 198 203 201 210 226
188 205 227 239 249 259 311 127 178 227 310 81 200 206 188 206 239 111 155 174 179 172 170 170 173 176 176 172 175 182 184 189 187 183 184 184 184 190 194 199 201 203 210 222
220 214 220 228 239 247 124 165 209 318 14 12 235 219 215 228 238 147 164 168 169 167 168 171 173 175 174 176 180 185 190 188 179 178 183 186 188 190 193 197 205 211 214 223
229 243 241 233 253 37 161 226 304 326 306 300 276 258 233 222 211 190 177 174 174 173 172 174 175 174 177 182 188 191 187 181 179 180 185 190 192 193 200 203 205 212 220 232
202 223 232 238 253 264 257 262 268 271 277 291 282 258 226 217 207 193 183 178 178 179 177 177 178 181 183 185 190 194 183 182 185 187 190 194 198 199 203 210 216 220 226 235
208 189 224 246 267 276 257 258 275 280 279 282 272 242 225 217 206 195 189 185 183 181 180 184 188 189 189 186 188 190 186 187 191 192 194 199 203 207 212 211 221 230 234 246
207 214 235 260 284 283 298 322 311 289 281 282 269 239 222 215 206 200 194 186 183 183 184 189 193 194 193 189 190 189 189 193 197 198 199 200 201 205 214 221 221 224 243 240